Location: Plymouth
(43.7490°N, 87.9770°W)
Time: 04:48:11
(UTC-06:00)

Daily predictions for brighter satellites

Satellite Brightness Start Highest point End
(mag) Time Altitude Azimuth Time Altitude Azimuth Time Altitude Azimuth
Cosmos 2227 Rocket 4.3 03:32:14 22° E 03:32:14 22° E 03:35:37 10° NE
Cosmos 2333 Rocket 3.9 04:01:08 26° SE 04:01:08 26° SE 04:03:31 10° SE
Cosmos 2219 Rocket 4.1 04:26:01 18° S 04:26:01 18° S 04:27:25 10° SSE
USA 234 4.0 04:17:10 10° E 04:23:14 42° NNE 04:24:28 38° N
Feng Yun 1-1 Rocket 4.3 04:32:03 10° NNE 04:36:42 66° NNE 04:36:42 66° NNE
Cosmos 1725 Rocket 4.1 04:35:52 10° S 04:42:04 75° E 04:48:22 10° N
Cosmos 2237 Rocket 2.4 04:49:37 58° SSW 04:49:37 58° SSW 04:54:19 10° SSE
SL-16 R/B 2.7 04:48:45 33° N 04:51:13 57° ENE 04:56:46 10° SE
SKYMED 2 4.0 04:47:08 10° SSE 04:51:24 61° ENE 04:51:33 60° ENE
BREEZE-M DEB (TANK) 4.4 04:55:26 39° SSW 04:55:26 39° SSW 04:58:05 10° SSE
NOAA 6 4.0 04:53:44 10° NNE 04:58:57 82° ESE 05:04:09 10° SSW
SL-08 R/B 4.3 04:56:35 10° SSW 05:02:40 64° W 05:08:44 10° N
Cosmos 2297 Rocket 2.1 04:59:57 32° SSW 05:02:41 89° WNW 05:08:24 10° NNE
SL-8 R/B 4.2 05:04:29 48° N 05:04:37 48° N 05:09:16 10° ENE
SeaSat 1 4.2 05:06:05 10° N 05:07:51 19° N 05:07:51 19° N
Cosmos 2227 Rocket 2.2 05:14:08 51° W 05:14:57 55° WNW 05:20:31 10° NNE
Meteor 1-21 Rocket 4.3 05:15:05 49° W 05:15:13 49° W 05:20:33 10° SSW
CZ-4 R/B 4.0 05:15:33 10° NE 05:18:44 22° E 05:21:56 10° SSE
USA 229 DEB 3.7 05:16:20 32° NW 05:19:58 74° WSW 05:27:10 10° SSE
USA 229 3.7 05:16:24 31° NW 05:20:04 74° WSW 05:27:16 10° SSE
Cosmos 2221 4.5 05:19:50 10° SSE 05:23:38 31° E 05:27:27 10° NNE
Meteor 1-28 Rocket 3.1 05:20:21 10° SSE 05:24:07 86° ENE 05:25:24 40° N
Cosmos 2016 Rocket 4.5 05:27:04 35° WNW 05:27:04 35° WNW 05:32:36 10° N
Aureole 2 Rocket 2.9 05:28:33 53° WNW 05:29:05 58° WSW 05:33:14 10° S
Cosmos 1743 Rocket 3.6 05:28:19 44° NW 05:29:21 56° W 05:33:39 10° S
Cosmos 1461 4.4 05:32:41 21° SSW 05:32:41 21° SSW 05:34:35 10° S
CZ-3 Stage 3 3.8 05:28:45 14° SW 05:31:57 26° SSE 05:42:42 10° ESE
IDEFIX/ARIANE 42P 4.3 05:27:53 10° NNE 05:32:42 35° E 05:37:29 10° SSE
Cosmos 2233 Rocket 3.9 05:27:43 10° SSW 05:33:57 72° W 05:40:16 10° N
Meteor 1-4 Rocket 2.4 05:34:22 10° SSW 05:38:03 77° W 05:41:51 10° N
COSMO-SKYMED 1 2.9 05:35:23 10° SSW 05:39:28 40° W 05:40:07 38° WNW
Cosmos 1842 Rocket 3.4 05:35:30 10° SSW 05:39:47 66° W 05:44:09 10° N
Cosmos 540 Rocket 4.0 05:40:01 33° W 05:40:36 34° W 05:45:09 10° SSW
Cosmos 2333 Rocket 3.8 05:43:13 17° WSW 05:43:13 17° WSW 05:45:31 10° SW
ATLAS 2AS CENTAUR R/B 4.4 05:34:49 10° NNW 05:41:48 30° NNE 05:48:31 10° E
Cosmos 2082 4.1 05:40:05 27° WSW 05:42:29 39° WNW 05:47:51 10° NNE
Cosmos 1626 4.1 05:43:00 10° NNE 05:46:21 30° ENE 05:49:40 10° SE
Cosmos 2058 2.9 05:45:05 10° N 05:49:13 81° E 05:53:21 10° S
Cosmos 1328 3.9 05:50:27 19° NNW 05:53:04 48° W 05:56:54 10° SSW
CSL-04 Debris 4.2 05:48:49 10° NNE 05:54:21 88° ESE 05:59:49 10° SSW
Cosmos 1603 4.0 05:49:17 10° NNW 05:54:55 69° ENE 06:00:32 10° SSE
Cosmos 1538 Rocket 4.0 05:50:39 10° NNW 05:56:02 73° WSW 06:01:22 10° S
ISS -3.4 05:55:55 36° WNW 05:57:06 79° SW 06:00:21 10° SE
Cosmos 1500 Rocket 4.0 05:53:59 16° NNW 05:57:09 39° W 06:01:18 10° SSW
YAOGAN 3 4.5 05:54:14 10° N 05:58:38 80° WNW 06:02:59 10° SSW
Cosmos 2151 3.0 05:57:13 10° NNW 06:01:20 54° W 06:05:28 10° S
Cosmos 923 Rocket 4.5 05:58:18 10° NNW 06:03:30 62° ENE 06:08:41 10° SSE
ERBS 2.5 06:03:12 21° NW 06:05:18 67° NE 06:08:41 10° SE
USA 234 3.3 05:59:21 10° SE 06:05:56 80° SW 06:11:49 14° NW
Helios 1B rocket 3.3 06:02:49 10° SSE 06:06:48 52° ENE 06:10:48 10° N
Cosmos 304 Rocket 4.4 06:05:19 17° NW 06:08:29 35° WSW 06:12:49 10° SSW
Ariane Rocket 3.2 06:05:19 10° N 06:10:12 47° WNW 06:15:04 10° SW
Cosmos 1680 Rocket 4.1 06:08:00 10° NNW 06:13:15 58° ENE 06:18:29 10° SE
ATLAS CENTAUR R/B 4.2 06:10:41 10° NNW 06:13:57 21° NNE 06:20:17 10° ENE
Cosmos 1356 Rocket 3.5 06:11:14 10° N 06:15:20 80° E 06:19:27 10° SSE
NOSS 3-1 (C) 4.1 06:08:27 10° NW 06:16:01 76° WSW 06:24:20 10° SSE
Cosmos 1633 Rocket 3.8 06:13:49 10° N 06:18:08 56° E 06:22:23 10° SSE
Sich 1 3.5 06:14:27 10° N 06:18:50 65° E 06:23:07 10° SSE
Cosmos 389 Rocket 4.3 06:15:35 10° SSE 06:18:57 36° E 06:22:22 10° NNE
Cosmos 1464 Rocket 4.0 06:15:08 10° SSW 06:21:27 68° W 06:27:45 10° N
Cosmos 2227 4.1 06:17:31 10° SSW 06:23:08 83° WNW 06:28:48 10° NNE
CSL-04 Rocket 3.9 06:21:34 10° N 06:26:34 42° WNW 06:31:30 10° SW
Genesis I 3.2 06:23:20 10° NW 06:27:15 81° WSW 06:31:10 10° SSE
Cosmos 1703 3.3 06:24:05 10° NNW 06:27:57 60° W 06:31:49 10° S
SJ-12 3.9 06:25:52 10° N 06:29:53 57° WNW 06:33:53 10° SSW
YAOGAN 1 2.5 06:29:15 10° N 06:33:36 81° WNW 06:37:55 10° SSW
Cosmos 1340 Rocket 3.6 06:31:16 10° NNW 06:34:44 30° W 06:38:12 10° SSW
SL-16 R/B 3.4 06:30:41 10° NW 06:34:51 22° W 06:39:03 10° SSW
PAYLOAD A 4.3 06:33:57 10° N 06:38:44 41° WNW 06:43:19 10° SW
Iridium 4 Rocket 4.4 06:37:16 10° NNE 06:41:17 42° E 06:45:29 10° SSE
Cosmos 2344 4.3 06:38:25 10° SSW 06:45:56 62° ESE 06:54:21 10° NE
MONITOR-E 4.1 06:43:23 10° N 06:46:34 78° WNW 06:49:43 10° SSW
Cosmos 2112 Rocket 4.1 06:41:52 10° NNW 06:47:13 85° WSW 06:52:34 10° SSE
Cosmos 1666 Rocket 3.7 06:43:01 10° NNW 06:47:23 57° W 06:51:46 10° S
SL-8 R/B 3.8 06:42:41 10° WNW 06:47:32 84° NNE 06:52:20 10° ESE
Cosmos 2297 Rocket 3.6 06:43:56 10° W 06:47:34 17° NW 06:51:13 10° N
Cosmos 968 Rocket 4.5 06:45:33 10° WSW 06:49:54 26° WNW 06:54:17 10° N
Cosmos 1726 4.4 06:47:21 10° SSE 06:50:33 29° E 06:53:48 10° NNE
CZ-2C R/B 2.6 06:46:56 10° N 06:51:18 42° WNW 06:55:36 10° SW
Cosmos 1271 Rocket 4.0 06:49:01 10° WSW 06:51:53 20° WNW 06:54:45 10° NNW
CZ-4 R/B 2.1 06:50:14 10° N 06:53:48 31° WNW 06:57:24 10° SW
